カタログに戻る

EUTE 21B

運用中通信GEO
NORAD 38992·PAYLOAD·🇪🇺 EU

打ち上げ Nov 10, 2012 から Guiana Space Centre

Loading…

TLE

最新Source: Space-Track

元期: Sep 14, 2026, 13:54 UTC

1 38992U 12062B   26257.57943436  .00000122  00000-0  00000-0 0  9990
2 38992   0.0691 350.6471 0002971 176.3915  56.7144  1.00270621 50726

AllMySatでEUTE 21Bをリアルタイム追跡

Download on the App Store